Time,TemperatureF,DewpointF,PressureIn,WindDirection,WindDirectionDegrees,WindSpeedMPH,WindSpeedGustMPH,Humidity,HourlyPrecipIn,Conditions,Clouds,dailyrainin,SoftwareType,DateUTC
2013-11-08 07:30:00,26.6,23.0,30.40,SSW,203,0.4,0.4,86,0.00,,,0.00,WUHU216HW,2013-11-08 13:30:00,
2013-11-08 07:35:00,26.6,23.0,30.40,West,270,0.9,0.9,86,0.00,,,0.00,WUHU216HW,2013-11-08 13:35:00,
2013-11-08 08:00:00,27.0,23.3,30.40,SSE,158,2.2,2.2,86,0.00,,,0.00,WUHU216HW,2013-11-08 14:00:00,
2013-11-08 08:01:00,27.0,23.3,30.40,South,180,1.6,1.6,86,0.00,,,0.00,WUHU216HW,2013-11-08 14:01:00,
2013-11-08 08:05:00,27.0,23.3,30.40,South,180,1.6,2.2,86,0.00,,,0.00,WUHU216HW,2013-11-08 14:05:00,
2013-11-08 08:10:00,27.0,23.3,30.40,South,180,1.6,2.2,86,0.00,,,0.00,WUHU216HW,2013-11-08 14:10:00,
2013-11-08 08:31:00,27.4,23.7,30.40,SW,225,1.1,1.1,86,0.00,,,0.00,WUHU216HW,2013-11-08 14:31:00,
2013-11-08 08:36:00,27.4,23.7,30.40,SW,225,1.1,1.1,86,0.00,,,0.00,WUHU216HW,2013-11-08 14:36:00,
2013-11-08 09:00:00,27.9,24.2,30.41,SSW,203,0.7,0.7,86,0.00,,,0.00,WUHU216HW,2013-11-08 15:00:00,
2013-11-08 09:05:00,27.9,24.2,30.41,SSW,203,0.7,0.7,86,0.00,,,0.00,WUHU216HW,2013-11-08 15:05:00,
2013-11-08 09:10:00,27.9,24.2,30.41,SSW,203,0.7,0.7,86,0.00,,,0.00,WUHU216HW,2013-11-08 15:10:00,
2013-11-08 09:30:00,28.8,25.1,30.39,South,180,0.9,0.9,86,0.00,,,0.00,WUHU216HW,2013-11-08 15:30:00,
2013-11-08 09:35:00,28.8,25.1,30.39,South,180,0.9,0.9,86,0.00,,,0.00,WUHU216HW,2013-11-08 15:35:00,
2013-11-08 10:00:00,29.7,26.0,30.39,WSW,248,1.1,1.1,86,0.00,,,0.00,WUHU216HW,2013-11-08 16:00:00,
2013-11-08 10:05:00,29.7,26.0,30.39,WSW,248,1.1,1.1,86,0.00,,,0.00,WUHU216HW,2013-11-08 16:05:00,
2013-11-08 10:10:00,29.7,26.0,30.39,WSW,248,1.1,1.1,86,0.00,,,0.00,WUHU216HW,2013-11-08 16:10:00,
2013-11-08 10:30:00,31.7,27.5,30.39,West,270,3.1,3.1,84,0.00,,,0.00,WUHU216HW,2013-11-08 16:30:00,
2013-11-08 10:35:00,31.7,27.5,30.39,West,270,3.1,3.1,84,0.00,,,0.00,WUHU216HW,2013-11-08 16:35:00,
2013-11-08 11:00:00,34.4,29.3,30.38,SE,135,5.4,5.4,82,0.00,,,0.00,WUHU216HW,2013-11-08 17:00:00,
2013-11-08 11:05:00,34.4,29.3,30.38,SSE,158,5.6,5.6,82,0.00,,,0.00,WUHU216HW,2013-11-08 17:05:00,
2013-11-08 11:10:00,34.4,29.3,30.38,SSE,158,5.6,5.6,82,0.00,,,0.00,WUHU216HW,2013-11-08 17:10:00,
2013-11-08 11:30:00,36.0,29.8,30.35,SE,135,3.8,3.8,78,0.00,,,0.00,WUHU216HW,2013-11-08 17:30:00,
2013-11-08 11:35:00,36.0,29.8,30.35,SE,135,3.8,3.8,78,0.00,,,0.00,WUHU216HW,2013-11-08 17:35:00,
2013-11-08 12:00:00,38.3,30.4,30.33,SSE,158,5.4,5.4,73,0.00,,,0.00,WUHU216HW,2013-11-08 18:00:00,
2013-11-08 12:05:00,38.3,30.1,30.33,SSE,158,6.7,6.7,72,0.00,,,0.00,WUHU216HW,2013-11-08 18:05:00,
2013-11-08 12:10:00,38.3,30.1,30.33,SSE,158,6.7,6.7,72,0.00,,,0.00,WUHU216HW,2013-11-08 18:10:00,
2013-11-08 12:30:00,38.5,29.6,30.31,SW,225,3.6,3.6,70,0.00,,,0.00,WUHU216HW,2013-11-08 18:30:00,
2013-11-08 12:35:00,38.5,29.6,30.31,SW,225,3.6,3.6,70,0.00,,,0.00,WUHU216HW,2013-11-08 18:35:00,
2013-11-08 13:00:00,38.5,28.8,30.30,SSE,158,2.2,2.2,68,0.00,,,0.00,WUHU216HW,2013-11-08 19:00:00,
2013-11-08 13:05:00,38.5,28.8,30.30,SSE,158,4.9,4.9,68,0.00,,,0.00,WUHU216HW,2013-11-08 19:05:00,
2013-11-08 13:10:00,38.5,28.8,30.30,SSE,158,4.9,4.9,68,0.00,,,0.00,WUHU216HW,2013-11-08 19:10:00,
2013-11-08 13:30:00,38.5,28.8,30.29,WSW,248,3.4,3.4,68,0.00,,,0.00,WUHU216HW,2013-11-08 19:30:00,
2013-11-08 13:35:00,38.5,28.8,30.29,WSW,248,3.4,3.4,68,0.00,,,0.00,WUHU216HW,2013-11-08 19:35:00,
2013-11-08 13:59:00,38.2,28.5,30.28,South,180,4.0,4.0,68,0.00,,,0.00,WUHU216HW,2013-11-08 19:59:00,
2013-11-08 14:00:00,38.2,28.5,30.28,South,180,4.0,4.0,68,0.00,,,0.00,WUHU216HW,2013-11-08 20:00:00,
2013-11-08 14:05:00,38.2,28.5,30.28,South,180,4.0,4.0,68,0.00,,,0.00,WUHU216HW,2013-11-08 20:05:00,
2013-11-08 14:30:00,37.8,28.5,30.26,SE,135,4.7,4.7,69,0.00,,,0.00,WUHU216HW,2013-11-08 20:30:00,
2013-11-08 14:35:00,37.8,28.5,30.26,SE,135,4.7,4.7,69,0.00,,,0.00,WUHU216HW,2013-11-08 20:35:00,
2013-11-08 14:59:00,37.3,28.4,30.25,SSE,158,3.4,3.4,70,0.00,,,0.00,WUHU216HW,2013-11-08 20:59:00,
2013-11-08 15:00:00,37.3,28.4,30.25,SSE,158,3.4,3.4,70,0.00,,,0.00,WUHU216HW,2013-11-08 21:00:00,
2013-11-08 15:05:00,37.3,28.4,30.25,SSE,158,3.4,3.4,70,0.00,,,0.00,WUHU216HW,2013-11-08 21:05:00,
2013-11-08 15:30:00,37.1,28.6,30.24,SE,135,6.3,6.3,71,0.00,,,0.00,WUHU216HW,2013-11-08 21:30:00,
2013-11-08 15:35:00,37.1,28.6,30.24,SE,135,6.3,6.3,71,0.00,,,0.00,WUHU216HW,2013-11-08 21:35:00,
2013-11-08 15:59:00,36.9,28.5,30.21,SSE,158,9.6,9.6,71,0.00,,,0.00,WUHU216HW,2013-11-08 21:59:00,
2013-11-08 16:00:00,36.9,28.5,30.21,SSE,158,9.6,9.6,71,0.00,,,0.00,WUHU216HW,2013-11-08 22:00:00,
2013-11-08 16:05:00,36.9,28.5,30.21,SSE,158,9.6,9.6,71,0.00,,,0.00,WUHU216HW,2013-11-08 22:05:00,
2013-11-08 16:30:00,36.7,28.3,30.19,SSE,158,4.0,4.0,71,0.00,,,0.00,WUHU216HW,2013-11-08 22:30:00,
2013-11-08 16:35:00,36.7,28.3,30.19,SSE,158,4.0,4.0,71,0.00,,,0.00,WUHU216HW,2013-11-08 22:35:00,
2013-11-08 17:00:00,36.5,28.1,30.18,SSE,158,6.7,6.7,71,0.00,,,0.00,WUHU216HW,2013-11-08 23:00:00,
2013-11-08 17:05:00,36.5,28.1,30.18,SSE,158,6.7,6.7,71,0.00,,,0.00,WUHU216HW,2013-11-08 23:05:00,
2013-11-08 17:30:00,36.2,28.4,30.16,SE,135,9.2,9.2,73,0.00,,,0.00,WUHU216HW,2013-11-08 23:30:00,
2013-11-08 17:35:00,36.2,28.4,30.16,SE,135,9.2,9.2,73,0.00,,,0.00,WUHU216HW,2013-11-08 23:35:00,
2013-11-08 18:00:00,36.0,28.2,30.16,SE,135,9.4,9.4,73,0.00,,,0.00,WUHU216HW,2013-11-09 00:00:00,
2013-11-08 18:05:00,36.0,28.2,30.16,SE,135,9.4,9.4,73,0.00,,,0.00,WUHU216HW,2013-11-09 00:05:00,
2013-11-08 18:30:00,35.6,28.4,30.15,SE,135,6.7,6.7,75,0.00,,,0.00,WUHU216HW,2013-11-09 00:30:00,
2013-11-08 18:35:00,35.6,28.4,30.15,SE,135,6.7,6.7,75,0.00,,,0.00,WUHU216HW,2013-11-09 00:35:00,
2013-11-08 19:00:00,35.8,29.3,30.13,SE,135,13.6,13.6,77,0.00,,,0.00,WUHU216HW,2013-11-09 01:00:00,
2013-11-08 19:05:00,35.8,29.3,30.13,SE,135,13.6,13.6,77,0.00,,,0.00,WUHU216HW,2013-11-09 01:05:00,
2013-11-08 19:30:00,35.8,29.3,30.12,SSE,158,13.9,13.9,77,0.00,,,0.00,WUHU216HW,2013-11-09 01:30:00,
2013-11-08 19:35:00,35.8,29.3,30.12,SSE,158,13.9,13.9,77,0.00,,,0.00,WUHU216HW,2013-11-09 01:35:00,
2013-11-08 19:59:00,36.2,29.0,30.12,SE,135,6.7,6.7,75,0.00,,,0.00,WUHU216HW,2013-11-09 01:59:00,
2013-11-08 20:00:00,36.2,29.0,30.12,SE,135,6.7,6.7,75,0.00,,,0.00,WUHU216HW,2013-11-09 02:00:00,
2013-11-08 20:05:00,36.2,29.0,30.12,SE,135,6.7,6.7,75,0.00,,,0.00,WUHU216HW,2013-11-09 02:05:00,
2013-11-08 20:30:00,36.7,29.5,30.11,South,180,11.0,11.0,75,0.00,,,0.00,WUHU216HW,2013-11-09 02:30:00,
2013-11-08 20:35:00,36.7,29.5,30.11,South,180,11.0,11.0,75,0.00,,,0.00,WUHU216HW,2013-11-09 02:35:00,
2013-11-08 21:00:00,35.3,30.9,30.09,SE,135,4.9,4.9,84,0.00,,,0.00,WUHU216HW,2013-11-09 03:00:00,
2013-11-08 21:05:00,35.3,30.9,30.09,SE,135,4.9,4.9,84,0.00,,,0.00,WUHU216HW,2013-11-09 03:05:00,
2013-11-08 21:10:00,35.3,30.9,30.09,SE,135,4.9,4.9,84,0.00,,,0.00,WUHU216HW,2013-11-09 03:10:00,
2013-11-08 21:30:00,34.7,31.5,30.05,SE,135,6.9,6.9,88,0.00,,,0.00,WUHU216HW,2013-11-09 03:30:00,
2013-11-08 21:35:00,34.7,31.5,30.05,SE,135,6.9,6.9,88,0.00,,,0.00,WUHU216HW,2013-11-09 03:35:00,